Flag for U.S.A. Weather past 2 weeks in Lafayette, Louisiana, U.S.A.

Now
78 °F

Clear.


Feels Like: 81 °F
Forecast: 74 / 89 °F
Wind: No wind

Location: Lafayette Regional Airport

Current Time: Jul 22, 2014 at 2:23:24 AM

Latest Report: Jul 22, 2014 at 1:53 AM


Visibility: 10 mi

Pressure: 30.01 "Hg

Humidity: 87%

Dew point: 74 °F

Location of LafayetteLocation

Historic Weather in Lafayette — Graph

°F

Lafayette temperature yesterday

Maximum temperature yesterday: 91 °F (at 2:53 PM)
Minimum temperature yesterday: 75 °F (at 3:53 AM)
Average temperature yesterday: 82 °F

Past Weeks' High & Low Weather Summary

 TemperatureHumidityPressure
High93 °F (Jul 11, 2:53 PM)97% (Jul 7, 5:53 AM)30.16 "Hg (Jul 7, 5:53 AM)
Low67 °F (Jul 17, 6:53 AM)45% (Jul 7, 1:53 PM)29.90 "Hg (Jul 18, 6:53 PM)
Average80 °F80%30.02 "Hg
* Reported Jul 7 12:53 AM — Jul 22 12:53 AM, Lafayette, Weather by CustomWeather, © 2014

Note: Actual official high and low records may vary slightly from our data, if they occured in-between our weather recording intervals... More about our weather records

Advertising

Lafayette weather history for previous 24 hours

 ConditionsComfort  
Time TempWeatherWind HumidityBarometerVisibility
12:53 AM
Jul 22
78 °FPassing clouds.3 mph87%30.01 "Hg10 mi
11:53 PM
Jul 21
79 °FClear.No wind84%30.01 "Hg10 mi
10:53 PM80 °FPassing clouds.5 mph85%30.01 "Hg10 mi
9:53 PM81 °FPartly cloudy.3 mph85%30.00 "Hg10 mi
8:53 PM82 °FSunny.No wind82%29.99 "Hg10 mi
7:53 PM84 °FSunny.3 mph77%29.98 "Hg10 mi
6:53 PM88 °FSunny.5 mph65%29.97 "Hg10 mi
5:53 PM89 °FPassing clouds.7 mph63%29.98 "Hg10 mi
4:53 PM89 °FBroken clouds.9 mph61%29.98 "Hg10 mi
3:53 PM91 °FScattered clouds.9 mph56%29.99 "Hg10 mi
2:53 PM91 °FScattered clouds.5 mph57%30.01 "Hg10 mi
1:53 PM89 °FBroken clouds.7 mph59%30.03 "Hg10 mi
12:53 PM88 °FBroken clouds.9 mph61%30.05 "Hg10 mi
12:00 PM89 °FScattered clouds.8 mph61%30.06 "Hg10 mi
10:53 AM85 °FMostly cloudy.No wind75%30.06 "Hg10 mi
9:53 AM84 °FPartly sunny.3 mph80%30.06 "Hg10 mi
8:53 AM79 °FPassing clouds.3 mph94%30.06 "Hg10 mi
7:53 AM77 °FFog.No wind96%30.04 "Hg1 mi
6:53 AM75 °FFog.No wind96%30.02 "Hg0 mi
5:53 AM75 °FFog.No wind94%30.01 "Hg5 mi
4:59 AM75 °FFog.6 mph94%30.00 "Hg2 mi
3:53 AM75 °FFog.No wind96%29.99 "Hg5 mi
2:53 AM76 °FFog.No wind94%29.99 "Hg5 mi
Weather by CustomWeather, © 2014

See weather overviewHow to use our weather pages